Time,TemperatureF,DewpointF,PressureIn,WindDirection,WindDirectionDegrees,WindSpeedMPH,WindSpeedGustMPH,Humidity,HourlyPrecipIn,Conditions,Clouds,dailyrainin,SoftwareType,DateUTC
2013-03-19 00:00:00,34.1,34.1,30.01,NE,56,5.4,17.8,100,8.24,,---,0.00,VWS V12.08,2013-03-19 04:00:00,
2013-03-19 00:05:00,34.3,34.3,30.00,NNE,20,9.4,0.0,100,8.24,,---,0.00,VWS V12.08,2013-03-19 04:05:00,
2013-03-19 00:10:00,34.2,34.2,29.99,NE,53,4.5,17.8,100,8.24,,---,0.00,VWS V12.08,2013-03-19 04:10:00,
2013-03-19 00:15:00,34.1,34.1,29.99,NE,37,6.1,0.0,100,8.24,,---,0.00,VWS V12.08,2013-03-19 04:15:00,
2013-03-19 00:20:00,46.6,38.0,29.71,West,276,17.2,18.0,72,0.00,,---,0.00,VWS V12.08,2013-03-19 04:20:00,
2013-03-19 00:25:00,46.6,38.0,29.71,West,276,17.2,18.0,72,0.00,,---,0.00,VWS V12.08,2013-03-19 04:25:00,
2013-03-19 00:30:00,34.3,34.3,29.97,NE,48,11.9,17.8,100,8.24,,---,0.00,VWS V12.08,2013-03-19 04:30:00,
2013-03-19 00:35:00,34.5,34.5,29.97,NE,45,8.6,17.8,100,8.24,,---,0.00,VWS V12.08,2013-03-19 04:35:00,
2013-03-19 00:40:00,46.3,38.0,29.72,WSW,253,14.3,21.3,73,0.00,,---,0.00,VWS V12.08,2013-03-19 04:40:00,
2013-03-19 00:45:00,34.6,34.6,29.95,NE,48,4.7,0.0,100,8.24,,---,0.00,VWS V12.08,2013-03-19 04:45:00,
2013-03-19 00:50:00,46.6,38.0,29.71,West,276,17.2,18.0,72,0.00,,---,0.00,VWS V12.08,2013-03-19 04:50:00,
2013-03-19 00:55:00,34.1,34.1,29.94,NE,53,7.1,17.8,100,8.24,,---,0.00,VWS V12.08,2013-03-19 04:55:00,
2013-03-19 01:00:00,34.3,34.3,29.94,North,359,13.0,18.8,100,8.24,,---,0.00,VWS V12.08,2013-03-19 05:00:00,
2013-03-19 01:05:00,34.4,34.4,29.93,NNE,32,10.9,18.8,100,8.24,,---,0.00,VWS V12.08,2013-03-19 05:05:00,
2013-03-19 01:10:00,34.4,34.4,29.93,ENE,63,6.0,18.8,100,8.24,,---,0.00,VWS V12.08,2013-03-19 05:10:00,
2013-03-19 01:15:00,34.3,34.3,29.93,NE,51,9.0,18.8,100,8.24,,---,0.00,VWS V12.08,2013-03-19 05:15:00,
2013-03-19 01:20:00,34.5,34.5,29.92,North,4,0.0,18.8,100,8.24,,---,0.00,VWS V12.08,2013-03-19 05:20:00,
2013-03-19 01:25:00,34.5,34.5,29.92,NE,49,12.3,18.8,100,8.24,,---,0.00,VWS V12.08,2013-03-19 05:25:00,
2013-03-19 01:30:00,34.4,34.4,29.92,ENE,59,5.2,18.8,100,8.24,,---,0.00,VWS V12.08,2013-03-19 05:30:00,
2013-03-19 01:35:00,34.5,34.5,29.91,NE,44,4.5,18.8,100,8.24,,---,0.00,VWS V12.08,2013-03-19 05:35:00,
2013-03-19 01:40:00,34.4,34.4,29.91,North,352,0.0,18.8,100,8.24,,---,0.00,VWS V12.08,2013-03-19 05:40:00,
2013-03-19 01:45:00,34.6,34.6,29.91,NNE,18,5.2,18.8,100,8.24,,---,0.00,VWS V12.08,2013-03-19 05:45:00,
2013-03-19 01:50:00,34.6,34.6,29.91,NNE,13,3.5,18.8,100,8.25,,---,0.01,VWS V12.08,2013-03-19 05:50:00,
2013-03-19 01:55:00,34.3,34.3,29.91,NE,44,0.0,18.8,100,8.26,,---,0.01,VWS V12.08,2013-03-19 05:55:00,
2013-03-19 02:00:00,34.5,34.5,29.90,NNE,28,7.0,18.8,100,8.27,,---,0.02,VWS V12.08,2013-03-19 06:00:00,
2013-03-19 02:05:00,34.8,34.8,29.89,NNE,22,0.0,18.8,100,8.28,,---,0.03,VWS V12.08,2013-03-19 06:05:00,
2013-03-19 02:10:00,34.8,34.8,29.89,North,11,13.2,18.8,100,8.29,,---,0.04,VWS V12.08,2013-03-19 06:10:00,
2013-03-19 02:15:00,35.2,35.2,29.89,North,357,16.3,18.8,100,8.30,,---,0.05,VWS V12.08,2013-03-19 06:15:00,
2013-03-19 02:20:00,34.7,34.7,29.90,NE,52,5.7,18.8,100,8.31,,---,0.06,VWS V12.08,2013-03-19 06:20:00,
2013-03-19 02:25:00,46.6,38.0,29.71,West,276,17.2,18.0,72,0.00,,---,0.00,VWS V12.08,2013-03-19 06:25:00,
2013-03-19 02:30:00,34.7,34.7,29.90,NNE,25,6.9,18.8,100,8.33,,---,0.08,VWS V12.08,2013-03-19 06:30:00,
2013-03-19 02:35:00,34.7,34.7,29.90,North,356,3.0,18.8,100,8.34,,---,0.10,VWS V12.08,2013-03-19 06:35:00,
2013-03-19 02:40:00,34.7,34.7,29.90,NE,37,7.0,18.8,100,8.36,,---,0.11,VWS V12.08,2013-03-19 06:40:00,
2013-03-19 02:45:00,34.5,34.5,29.89,NNE,32,12.2,18.8,100,8.37,,---,0.12,VWS V12.08,2013-03-19 06:45:00,
2013-03-19 02:50:00,34.9,34.9,29.89,NNE,30,8.3,18.8,100,8.38,,---,0.13,VWS V12.08,2013-03-19 06:50:00,
2013-03-19 02:55:00,35.2,35.2,29.88,North,4,7.3,18.8,100,8.39,,---,0.14,VWS V12.08,2013-03-19 06:55:00,
2013-03-19 03:00:00,34.8,34.8,29.87,NNE,25,13.1,18.8,100,8.40,,---,0.15,VWS V12.08,2013-03-19 07:00:00,
2013-03-19 03:05:00,30.5,26.2,29.83,NW,315,11.4,25.4,84,0.88,,---,0.84,VWS V12.08,2013-03-19 07:05:00,
2013-03-19 03:10:00,34.8,34.8,29.87,NNE,32,9.3,22.5,100,8.42,,---,0.17,VWS V12.08,2013-03-19 07:10:00,
2013-03-19 03:15:00,35.1,35.1,29.87,North,8,13.2,22.5,100,8.44,,---,0.19,VWS V12.08,2013-03-19 07:15:00,
2013-03-19 03:20:00,35.3,35.3,29.87,NNE,17,8.9,22.5,100,8.44,,---,0.20,VWS V12.08,2013-03-19 07:20:00,
2013-03-19 03:25:00,35.2,35.2,29.87,NNE,21,9.8,22.5,100,8.46,,---,0.21,VWS V12.08,2013-03-19 07:25:00,
2013-03-19 03:30:00,34.8,34.8,29.86,NNE,17,6.9,22.5,100,8.46,,---,0.21,VWS V12.08,2013-03-19 07:30:00,
2013-03-19 03:34:00,35.0,35.0,29.86,NNE,27,10.9,22.5,100,8.47,,---,0.22,VWS V12.08,2013-03-19 07:34:00,
2013-03-19 03:39:00,34.7,34.7,29.85,North,7,15.0,22.5,100,8.48,,---,0.23,VWS V12.08,2013-03-19 07:39:00,
2013-03-19 03:44:00,34.7,34.7,29.84,NNE,13,10.4,22.5,100,8.48,,---,0.23,VWS V12.08,2013-03-19 07:44:00,
2013-03-19 03:49:00,35.0,35.0,29.84,NE,42,7.3,22.5,100,8.49,,---,0.24,VWS V12.08,2013-03-19 07:49:00,
2013-03-19 03:54:00,35.0,35.0,29.84,North,10,7.0,22.5,100,8.50,,---,0.25,VWS V12.08,2013-03-19 07:54:00,
2013-03-19 04:00:00,46.6,38.0,29.71,West,276,17.2,18.0,72,0.00,,---,0.00,VWS V12.08,2013-03-19 08:00:00,
2013-03-19 04:05:00,35.0,35.0,29.84,NNW,343,11.6,22.5,100,8.51,,---,0.26,VWS V12.08,2013-03-19 08:05:00,
2013-03-19 04:10:00,34.7,34.7,29.83,NNE,30,9.1,22.5,100,8.51,,---,0.26,VWS V12.08,2013-03-19 08:10:00,
2013-03-19 04:15:00,34.9,34.9,29.83,North,7,8.1,22.5,100,8.52,,---,0.27,VWS V12.08,2013-03-19 08:15:00,
2013-03-19 04:20:00,35.2,35.2,29.82,NE,34,8.9,22.5,100,8.52,,---,0.27,VWS V12.08,2013-03-19 08:20:00,
2013-03-19 04:25:00,35.0,35.0,29.82,NNE,24,9.8,22.5,100,8.53,,---,0.28,VWS V12.08,2013-03-19 08:25:00,
2013-03-19 04:30:00,35.2,35.2,29.82,NNE,27,6.0,22.5,100,8.53,,---,0.28,VWS V12.08,2013-03-19 08:30:00,
2013-03-19 04:35:00,54.0,54.0,29.58,WNW,285,19.9,23.6,100,0.03,,---,0.03,VWS V12.08,2013-03-19 08:35:00,
2013-03-19 04:40:00,35.2,35.2,29.82,NNE,17,12.6,22.5,100,8.54,,---,0.29,VWS V12.08,2013-03-19 08:40:00,
2013-03-19 04:45:00,35.5,35.5,29.81,North,3,12.1,22.5,100,8.55,,---,0.30,VWS V12.08,2013-03-19 08:45:00,
2013-03-19 04:50:00,37.7,35.5,29.32,West,280,6.8,13.3,92,1.03,,---,1.03,VWS V12.08,2013-03-19 08:50:00,
2013-03-19 04:55:00,35.7,35.7,29.81,NE,49,11.6,0.0,100,8.56,,---,0.31,VWS V12.08,2013-03-19 08:55:00,
2013-03-19 05:00:00,35.0,35.0,29.90,NNW,332,0.0,12.4,100,0.10,,---,0.10,VWS V12.08,2013-03-19 09:00:00,
2013-03-19 05:04:00,35.5,35.5,29.81,North,7,14.3,22.5,100,8.57,,---,0.32,VWS V12.08,2013-03-19 09:04:00,
2013-03-19 05:09:00,35.9,35.9,29.81,NNE,18,4.4,22.5,100,8.58,,---,0.33,VWS V12.08,2013-03-19 09:09:00,
2013-03-19 05:14:00,35.8,35.8,29.81,NE,39,14.7,22.5,100,8.58,,---,0.33,VWS V12.08,2013-03-19 09:14:00,
2013-03-19 05:19:00,35.8,35.8,29.80,North,11,13.4,22.5,100,8.59,,---,0.34,VWS V12.08,2013-03-19 09:19:00,
2013-03-19 05:24:00,36.1,36.1,29.81,NE,41,6.5,22.5,100,8.59,,---,0.34,VWS V12.08,2013-03-19 09:24:00,
2013-03-19 05:29:00,35.9,35.9,29.81,NNE,14,10.0,22.5,100,8.60,,---,0.35,VWS V12.08,2013-03-19 09:29:00,
2013-03-19 05:34:00,36.1,36.1,29.81,North,8,8.1,22.5,100,8.60,,---,0.35,VWS V12.08,2013-03-19 09:34:00,
2013-03-19 05:39:00,36.2,36.2,29.81,NNE,17,12.1,22.5,100,8.61,,---,0.36,VWS V12.08,2013-03-19 09:39:00,
2013-03-19 05:44:00,35.9,35.9,29.80,NNW,342,6.3,0.0,100,8.61,,---,0.36,VWS V12.08,2013-03-19 09:44:00,
2013-03-19 05:49:00,36.1,36.1,29.79,NNE,20,7.5,22.5,100,8.62,,---,0.37,VWS V12.08,2013-03-19 09:49:00,
2013-03-19 05:54:00,36.0,36.0,29.78,North,357,15.7,22.5,100,8.62,,---,0.37,VWS V12.08,2013-03-19 09:54:00,
2013-03-19 05:59:00,36.1,36.1,29.78,NNE,20,9.9,22.7,100,8.63,,---,0.38,VWS V12.08,2013-03-19 09:59:00,
2013-03-19 06:04:00,36.3,36.3,29.77,NNW,343,18.0,22.7,100,8.63,,---,0.39,VWS V12.08,2013-03-19 10:04:00,
2013-03-19 06:09:00,36.0,36.0,29.77,NE,39,9.4,22.7,100,8.64,,---,0.39,VWS V12.08,2013-03-19 10:09:00,
2013-03-19 06:14:00,36.2,36.2,29.77,NNE,13,14.5,22.7,100,8.64,,---,0.39,VWS V12.08,2013-03-19 10:14:00,
2013-03-19 06:19:00,36.1,36.1,29.76,NNE,18,8.4,22.7,100,8.65,,---,0.40,VWS V12.08,2013-03-19 10:19:00,
2013-03-19 06:24:00,36.0,36.0,29.76,ENE,63,6.0,0.0,100,8.65,,---,0.40,VWS V12.08,2013-03-19 10:24:00,
2013-03-19 06:29:00,36.3,36.3,29.75,NE,48,3.0,0.0,100,8.66,,---,0.41,VWS V12.08,2013-03-19 10:29:00,
2013-03-19 06:34:00,36.4,36.4,29.76,North,349,5.9,0.0,100,8.66,,---,0.41,VWS V12.08,2013-03-19 10:34:00,
2013-03-19 06:39:00,36.6,36.6,29.77,NNE,30,5.2,22.7,100,8.67,,---,0.42,VWS V12.08,2013-03-19 10:39:00,
2013-03-19 06:44:00,36.6,36.6,29.77,North,7,10.5,22.7,100,8.67,,---,0.43,VWS V12.08,2013-03-19 10:44:00,
2013-03-19 06:49:00,36.7,36.7,29.77,North,6,15.3,0.0,100,8.68,,---,0.43,VWS V12.08,2013-03-19 10:49:00,
2013-03-19 06:54:00,45.6,40.4,30.17,ENE,68,0.0,9.5,82,0.00,,---,0.00,VWS V12.08,2013-03-19 10:54:00,
2013-03-19 06:59:00,36.3,36.3,29.77,North,357,13.5,22.7,100,8.69,,---,0.44,VWS V12.08,2013-03-19 10:59:00,
2013-03-19 07:04:00,36.4,36.4,29.77,NW,316,0.0,0.0,100,8.70,,---,0.45,VWS V12.08,2013-03-19 11:04:00,
2013-03-19 07:09:00,36.4,36.4,29.77,NNE,24,10.9,0.0,100,8.70,,---,0.45,VWS V12.08,2013-03-19 11:09:00,
2013-03-19 07:14:00,36.2,36.2,29.77,North,7,10.8,0.0,100,8.70,,---,0.45,VWS V12.08,2013-03-19 11:14:00,
2013-03-19 07:19:00,36.2,36.2,29.77,NNW,345,7.0,22.7,100,8.71,,---,0.46,VWS V12.08,2013-03-19 11:19:00,
2013-03-19 07:24:00,36.3,26.9,29.93,WNW,297,4.7,21.4,68,0.00,,---,0.00,VWS V12.08,2013-03-19 11:24:00,
2013-03-19 07:29:00,29.1,27.7,30.03,WNW,291,0.0,30.0,94,0.88,,---,0.00,VWS V12.08,2013-03-19 11:29:00,
2013-03-19 07:34:00,36.3,36.3,29.76,North,8,11.1,22.7,100,8.72,,---,0.47,VWS V12.08,2013-03-19 11:34:00,
2013-03-19 07:39:00,36.4,36.4,29.76,NNE,31,8.9,0.0,100,8.73,,---,0.48,VWS V12.08,2013-03-19 11:39:00,
2013-03-19 07:44:00,35.5,27.5,30.22,North,359,5.6,17.0,72,0.01,,---,0.01,VWS V12.08,2013-03-19 11:44:00,
2013-03-19 07:49:00,32.5,32.5,29.58,WNW,300,9.3,17.1,100,0.00,,---,0.00,VWS V12.08,2013-03-19 11:49:00,
2013-03-19 07:54:00,36.0,36.0,29.75,North,10,8.3,22.7,100,8.74,,---,0.49,VWS V12.08,2013-03-19 11:54:00,
2013-03-19 21:37:00,41.0,39.0,29.76,NW,326,6.9,6.9,92,9.40,,---,1.15,VWS V12.08,2013-03-20 01:37:00,
2013-03-19 21:42:00,33.3,33.3,29.77,NNW,328,0.0,24.4,100,0.22,,---,0.22,VWS V12.08,2013-03-20 01:42:00,
2013-03-19 21:47:00,36.9,28.2,29.94,SSW,212,6.6,17.4,70,0.00,,---,0.00,VWS V12.08,2013-03-20 01:47:00,
2013-03-19 21:52:00,40.8,38.7,29.76,NW,305,10.6,0.0,92,9.40,,---,1.15,VWS V12.08,2013-03-20 01:52:00,
2013-03-19 21:57:00,40.8,38.6,29.76,NW,308,14.9,17.7,92,9.40,,---,1.15,VWS V12.08,2013-03-20 01:57:00,
2013-03-19 22:02:00,35.5,27.2,30.22,West,277,11.2,30.0,71,0.14,,---,0.01,VWS V12.08,2013-03-20 02:02:00,
2013-03-19 22:07:00,40.3,37.9,29.76,WNW,297,12.0,18.0,91,9.40,,---,1.15,VWS V12.08,2013-03-20 02:07:00,
2013-03-19 22:12:00,40.0,37.5,29.77,NW,315,10.2,18.0,91,9.40,,---,1.15,VWS V12.08,2013-03-20 02:12:00,
2013-03-19 22:17:00,39.2,31.7,30.29,WSW,245,4.7,9.6,74,0.00,,---,0.00,VWS V12.08,2013-03-20 02:17:00,
2013-03-19 22:22:00,35.2,29.5,30.25,SSW,194,6.2,21.6,79,0.59,,---,0.03,VWS V12.08,2013-03-20 02:22:00,
2013-03-19 22:27:00,37.1,28.4,30.05,West,260,1.3,13.2,70,0.00,,---,0.00,VWS V12.08,2013-03-20 02:27:00,
2013-03-19 22:32:00,39.2,36.3,29.77,West,273,12.4,18.0,89,9.40,,---,1.15,VWS V12.08,2013-03-20 02:32:00,
2013-03-19 22:37:00,39.5,36.4,29.77,WNW,297,9.8,18.0,89,9.40,,---,1.15,VWS V12.08,2013-03-20 02:37:00,
2013-03-19 22:42:00,38.8,32.6,30.28,North,4,0.0,14.5,78,0.00,,---,0.00,VWS V12.08,2013-03-20 02:42:00,
2013-03-19 22:47:00,49.6,48.3,29.65,SE,124,5.3,15.3,95,0.00,,---,0.00,VWS V12.08,2013-03-20 02:47:00,
2013-03-19 22:52:00,42.2,33.6,30.20,North,359,0.0,13.9,71,0.00,,---,0.00,VWS V12.08,2013-03-20 02:52:00,
2013-03-19 22:57:00,39.1,35.7,29.78,WNW,301,4.6,0.0,87,9.40,,---,1.15,VWS V12.08,2013-03-20 02:57:00,
2013-03-19 23:02:00,39.0,35.5,29.78,SW,229,0.0,0.0,87,9.40,,---,1.15,VWS V12.08,2013-03-20 03:02:00,
2013-03-19 23:07:00,39.1,35.7,29.78,West,270,0.0,18.0,87,9.40,,---,1.15,VWS V12.08,2013-03-20 03:07:00,
2013-03-19 23:12:00,38.7,35.3,29.78,NW,316,0.0,0.0,87,9.40,,---,1.15,VWS V12.08,2013-03-20 03:12:00,
2013-03-19 23:17:00,49.6,48.3,29.65,SE,124,5.3,15.3,95,0.00,,---,0.00,VWS V12.08,2013-03-20 03:17:00,
2013-03-19 23:22:00,38.6,35.2,29.78,WNW,302,4.7,0.0,88,9.40,,---,1.15,VWS V12.08,2013-03-20 03:22:00,
2013-03-19 23:27:00,38.5,35.2,29.79,West,266,0.0,18.0,88,9.40,,---,1.15,VWS V12.08,2013-03-20 03:27:00,
2013-03-19 23:32:00,49.4,48.1,29.64,SW,214,1.6,8.3,95,0.00,,---,0.00,VWS V12.08,2013-03-20 03:32:00,
2013-03-19 23:37:00,44.2,38.1,29.74,WSW,245,8.7,14.3,79,0.00,,---,0.00,VWS V12.08,2013-03-20 03:37:00,
2013-03-19 23:42:00,38.4,35.0,29.79,SW,232,3.2,18.0,88,9.40,,---,1.15,VWS V12.08,2013-03-20 03:42:00,
2013-03-19 23:47:00,44.5,40.9,29.61,West,280,8.8,26.0,87,0.94,,---,0.50,VWS V12.08,2013-03-20 03:47:00,
2013-03-19 23:52:00,37.5,31.1,30.43,NW,316,5.0,24.0,77,0.11,,---,0.00,VWS V12.08,2013-03-20 03:52:00,
2013-03-19 23:57:00,44.4,40.6,29.62,WSW,239,13.3,18.0,86,0.54,,---,0.50,VWS V12.08,2013-03-20 03:57:00,